Weather in Ried

Austria     48°12′45″N   13°29′33″E
temp.,
°C
wind,
m/s
gust,
m/s
humid.,
%
clouds,
%
prec.,
mm/h
press.,
hPa
HPBL,
m
9 may, sun
sun923:00+7ese337853 0.0 101848
02:00+8ese3470100 0.0 1018100
05:00+5ese34815 0.0 101860
08:00+9ese36676 0.0 1016191
11:00+16ese575323 0.0 1014421
14:00+21e575359 0.0 1012580
17:00+21e58585 0.0 1009489
20:00+16ese39748 0.0 1008144
10 may, mon
mon1023:00+12se348713 0.0 100949
02:00+9se228727 0.0 100922
05:00+8se228798 0.0 101015
08:00+12ese247518 0.0 1010173
11:00+18ese33565 0.0 1010534
14:00+22e224833 0.0 1009824
17:00+23e455730 0.0 1008637
20:00+17ese398133 0.0 1007189
11 may, tue
tue1123:00+15ese3983100 0.0 1006175
02:00+12ese359383 0.0 100588
05:00+13w61382100 0.0 1008479
08:00+13w598758 0.0 1010453
11:00+16nw2276100 0.0 1009824
14:00+18e4671100 0.0 1005676
17:00+20e41174100 0.0 1001494
20:00+16w3691100 0.0 1001133
12 may, wed
wed1223:00+13sw229597 0.0 100451
02:00+13wsw5998100 1.0 1005428
05:00+9wsw91696100 3.9 1007960
08:00+7wsw91695100 10.4 10091010
11:00+7wsw91795100 3.8 1010917
14:00+8wsw81595100 5.4 1010797
17:00+8wsw71396100 1.4 1010771
20:00+8wsw71297100 2.6 1010600
13 may, thu
thu1323:00+8wsw61197100 1.1 1010558
02:00+8wsw51098100 2.1 1009507
05:00+8wsw5998100 1.8 1009474
08:00+8wsw4899100 2.6 1008437
11:00+9w4898100 1.1 1008494
14:00+9w5897100 2.6 1008536
17:00+9w4898100 1.5 1008512
20:00+8wsw4798100 3.3 1009372